Time,TemperatureF,DewpointF,PressureIn,WindDirection,WindDirectionDegrees,WindSpeedMPH,WindSpeedGustMPH,Humidity,HourlyPrecipIn,Conditions,Clouds,dailyrainin,SoftwareType,DateUTC
2013-03-06 00:00:00,36.8,20.0,30.28,NW,320,5.8,5.8,50,0.00,,,0.00,VWS V13.01,2013-03-06 06:00:00,
2013-03-06 00:05:00,36.7,19.8,30.28,West,264,7.2,7.2,50,0.00,,,0.00,VWS V13.01,2013-03-06 06:05:00,
2013-03-06 00:10:00,36.5,19.6,30.28,WNW,297,5.4,8.1,50,0.00,,,0.00,VWS V13.01,2013-03-06 06:10:00,
2013-03-06 00:15:00,36.5,19.6,30.28,WNW,298,7.6,7.6,50,0.00,,,0.00,VWS V13.01,2013-03-06 06:15:00,
2013-03-06 00:20:00,36.1,19.3,30.28,WNW,287,2.7,6.3,50,0.00,,,0.00,VWS V13.01,2013-03-06 06:20:00,
2013-03-06 00:25:00,35.9,19.1,30.28,West,267,4.0,4.0,50,0.00,,,0.00,VWS V13.01,2013-03-06 06:25:00,
2013-03-06 00:30:00,35.9,19.1,30.28,WNW,288,4.0,4.0,50,0.00,,,0.00,VWS V13.01,2013-03-06 06:30:00,
2013-03-06 00:35:00,35.6,18.8,30.28,WSW,256,5.4,5.4,50,0.00,,,0.00,VWS V13.01,2013-03-06 06:35:00,
2013-03-06 00:40:00,35.4,18.6,30.28,WNW,283,2.7,2.7,50,0.00,,,0.00,VWS V13.01,2013-03-06 06:40:00,
2013-03-06 00:45:00,35.2,18.9,30.28,West,261,3.6,3.6,51,0.00,,,0.00,VWS V13.01,2013-03-06 06:45:00,
2013-03-06 00:50:00,35.0,18.3,30.28,WSW,254,6.3,6.3,50,0.00,,,0.00,VWS V13.01,2013-03-06 06:50:00,
2013-03-06 00:55:00,35.0,18.3,30.28,NW,308,10.1,10.1,50,0.00,,,0.00,VWS V13.01,2013-03-06 06:55:00,
2013-03-06 01:00:00,35.0,18.3,30.28,West,265,4.0,4.0,50,0.00,,,0.00,VWS V13.01,2013-03-06 07:00:00,
2013-03-06 01:05:00,34.9,18.1,30.28,NW,321,4.0,4.0,50,0.00,,,0.00,VWS V13.01,2013-03-06 07:05:00,
2013-03-06 01:10:00,34.9,18.1,30.28,West,261,3.6,4.0,50,0.00,,,0.00,VWS V13.01,2013-03-06 07:10:00,
2013-03-06 01:15:00,34.7,18.0,30.28,WNW,287,4.9,6.3,50,0.00,,,0.00,VWS V13.01,2013-03-06 07:15:00,
2013-03-06 01:20:00,34.7,18.0,30.28,West,263,5.4,7.2,50,0.00,,,0.00,VWS V13.01,2013-03-06 07:20:00,
2013-03-06 01:24:00,34.7,18.0,30.28,WSW,256,4.9,6.3,50,0.00,,,0.00,VWS V13.01,2013-03-06 07:24:00,
2013-03-06 01:29:00,34.5,17.8,30.28,West,270,5.4,8.3,50,0.00,,,0.00,VWS V13.01,2013-03-06 07:29:00,
2013-03-06 01:34:00,34.3,17.6,30.28,NW,321,5.8,5.8,50,0.00,,,0.00,VWS V13.01,2013-03-06 07:34:00,
2013-03-06 01:39:00,34.3,17.6,30.28,West,281,5.4,8.3,50,0.00,,,0.00,VWS V13.01,2013-03-06 07:39:00,
2013-03-06 01:44:00,34.1,17.5,30.31,West,276,4.0,7.6,50,0.00,,,0.00,VWS V13.01,2013-03-06 07:44:00,
2013-03-06 01:49:00,34.1,17.5,30.31,NW,320,3.1,6.3,50,0.00,,,0.00,VWS V13.01,2013-03-06 07:49:00,
2013-03-06 01:54:00,34.0,17.3,30.31,WNW,296,3.6,5.4,50,0.00,,,0.00,VWS V13.01,2013-03-06 07:54:00,
2013-03-06 01:59:00,34.0,17.3,30.31,NW,311,7.6,8.1,50,0.00,,,0.00,VWS V13.01,2013-03-06 07:59:00,
2013-03-06 02:04:00,33.8,17.1,30.31,West,265,5.8,5.8,50,0.00,,,0.00,VWS V13.01,2013-03-06 08:04:00,
2013-03-06 02:09:00,33.8,17.6,30.31,WSW,251,3.6,3.6,51,0.00,,,0.00,VWS V13.01,2013-03-06 08:09:00,
2013-03-06 02:14:00,33.6,17.0,30.31,West,266,6.3,6.3,50,0.00,,,0.00,VWS V13.01,2013-03-06 08:14:00,
2013-03-06 02:19:00,33.6,17.0,30.31,WNW,297,3.6,5.8,50,0.00,,,0.00,VWS V13.01,2013-03-06 08:19:00,
2013-03-06 02:24:00,33.2,17.1,30.31,WNW,303,4.0,4.0,51,0.00,,,0.00,VWS V13.01,2013-03-06 08:24:00,
2013-03-06 02:29:00,33.1,16.9,30.31,West,263,3.1,6.3,51,0.00,,,0.00,VWS V13.01,2013-03-06 08:29:00,
2013-03-06 02:34:00,33.4,17.2,30.31,WNW,296,6.3,6.3,51,0.00,,,0.00,VWS V13.01,2013-03-06 08:34:00,
2013-03-06 02:39:00,33.1,16.9,30.31,West,278,3.6,6.3,51,0.00,,,0.00,VWS V13.01,2013-03-06 08:39:00,
2013-03-06 02:44:00,32.7,16.6,30.31,West,272,3.6,4.0,51,0.00,,,0.00,VWS V13.01,2013-03-06 08:44:00,
2013-03-06 02:49:00,32.7,16.6,30.31,WNW,294,5.8,5.8,51,0.00,,,0.00,VWS V13.01,2013-03-06 08:49:00,
2013-03-06 02:54:00,32.7,16.6,30.31,West,260,4.0,5.4,51,0.00,,,0.00,VWS V13.01,2013-03-06 08:54:00,
2013-03-06 02:59:00,32.5,16.4,30.31,SW,234,4.0,7.6,51,0.00,,,0.00,VWS V13.01,2013-03-06 08:59:00,
2013-03-06 03:04:00,32.5,16.4,30.31,WNW,284,4.0,4.9,51,0.00,,,0.00,VWS V13.01,2013-03-06 09:04:00,
2013-03-06 03:09:00,32.5,16.4,30.31,WNW,299,5.8,8.1,51,0.00,,,0.00,VWS V13.01,2013-03-06 09:09:00,
2013-03-06 03:14:00,32.3,16.2,30.31,West,266,2.7,4.0,51,0.00,,,0.00,VWS V13.01,2013-03-06 09:14:00,
2013-03-06 03:19:00,32.0,15.9,30.31,West,279,3.1,3.1,51,0.00,,,0.00,VWS V13.01,2013-03-06 09:19:00,
2013-03-06 03:24:00,31.8,15.8,30.31,West,264,3.6,4.0,51,0.00,,,0.00,VWS V13.01,2013-03-06 09:24:00,
2013-03-06 03:29:00,31.6,16.0,30.31,West,262,4.0,5.8,52,0.00,,,0.00,VWS V13.01,2013-03-06 09:29:00,
2013-03-06 03:34:00,31.6,16.0,30.31,West,272,3.1,4.9,52,0.00,,,0.00,VWS V13.01,2013-03-06 09:34:00,
2013-03-06 03:39:00,31.4,15.9,30.31,West,263,3.1,3.6,52,0.00,,,0.00,VWS V13.01,2013-03-06 09:39:00,
2013-03-06 03:44:00,31.1,16.0,30.31,West,266,2.7,3.1,53,0.00,,,0.00,VWS V13.01,2013-03-06 09:44:00,
2013-03-06 03:49:00,30.7,15.6,30.31,WSW,252,3.6,6.3,53,0.00,,,0.00,VWS V13.01,2013-03-06 09:49:00,
2013-03-06 03:54:00,30.5,15.5,30.31,WSW,251,2.2,3.1,53,0.00,,,0.00,VWS V13.01,2013-03-06 09:54:00,
2013-03-06 03:59:00,30.5,15.5,30.31,WSW,251,2.2,2.7,53,0.00,,,0.00,VWS V13.01,2013-03-06 09:59:00,
2013-03-06 04:04:00,30.5,15.5,30.31,WSW,251,2.7,3.6,53,0.00,,,0.00,VWS V13.01,2013-03-06 10:04:00,
2013-03-06 04:09:00,30.4,15.3,30.31,WSW,251,2.7,2.7,53,0.00,,,0.00,VWS V13.01,2013-03-06 10:09:00,
2013-03-06 04:14:00,30.2,15.6,30.31,West,272,4.0,4.0,54,0.00,,,0.00,VWS V13.01,2013-03-06 10:14:00,
2013-03-06 04:19:00,30.0,15.4,30.31,SSW,212,3.1,3.6,54,0.00,,,0.00,VWS V13.01,2013-03-06 10:19:00,
2013-03-06 04:24:00,29.5,15.3,30.31,SW,234,2.2,3.1,55,0.00,,,0.00,VWS V13.01,2013-03-06 10:24:00,
2013-03-06 04:29:00,29.3,15.1,30.31,SW,232,3.1,3.6,55,0.00,,,0.00,VWS V13.01,2013-03-06 10:29:00,
2013-03-06 04:34:00,29.3,15.1,30.31,SW,234,4.0,4.0,55,0.00,,,0.00,VWS V13.01,2013-03-06 10:34:00,
2013-03-06 04:39:00,29.5,15.3,30.31,SW,219,2.7,2.7,55,0.00,,,0.00,VWS V13.01,2013-03-06 10:39:00,
2013-03-06 04:44:00,29.1,15.4,30.34,SW,224,2.7,3.1,56,0.00,,,0.00,VWS V13.01,2013-03-06 10:44:00,
2013-03-06 04:49:00,28.9,15.2,30.34,SW,215,0.0,0.0,56,0.00,,,0.00,VWS V13.01,2013-03-06 10:49:00,
2013-03-06 04:54:00,28.6,14.9,30.34,SW,215,0.0,0.0,56,0.00,,,0.00,VWS V13.01,2013-03-06 10:54:00,
2013-03-06 04:59:00,28.4,14.7,30.34,WSW,247,2.2,2.2,56,0.00,,,0.00,VWS V13.01,2013-03-06 10:59:00,
2013-03-06 05:04:00,28.4,15.1,30.34,WSW,247,0.0,0.0,57,0.00,,,0.00,VWS V13.01,2013-03-06 11:04:00,
2013-03-06 05:09:00,28.4,15.1,30.34,WSW,248,3.1,3.1,57,0.00,,,0.00,VWS V13.01,2013-03-06 11:09:00,
2013-03-06 05:14:00,28.4,15.5,30.34,SW,220,2.7,3.1,58,0.00,,,0.00,VWS V13.01,2013-03-06 11:14:00,
2013-03-06 05:19:00,28.2,15.3,30.34,SW,220,0.0,0.0,58,0.00,,,0.00,VWS V13.01,2013-03-06 11:19:00,
2013-03-06 05:24:00,27.8,15.8,30.34,NNE,15,0.0,0.0,60,0.00,,,0.00,VWS V13.01,2013-03-06 11:24:00,
2013-03-06 05:29:00,27.7,15.2,30.34,NNE,15,0.0,0.0,59,0.00,,,0.00,VWS V13.01,2013-03-06 11:29:00,
2013-03-06 05:34:00,27.5,15.1,30.34,East,88,0.0,0.0,59,0.00,,,0.00,VWS V13.01,2013-03-06 11:34:00,
2013-03-06 05:39:00,27.3,14.9,30.34,East,88,0.0,0.0,59,0.00,,,0.00,VWS V13.01,2013-03-06 11:39:00,
2013-03-06 05:44:00,27.5,15.4,30.34,South,169,0.0,0.0,60,0.00,,,0.00,VWS V13.01,2013-03-06 11:44:00,
2013-03-06 05:49:00,27.5,15.4,30.34,South,169,0.0,0.0,60,0.00,,,0.00,VWS V13.01,2013-03-06 11:49:00,
2013-03-06 05:54:00,27.5,15.4,30.34,South,169,0.0,0.0,60,0.00,,,0.00,VWS V13.01,2013-03-06 11:54:00,
2013-03-06 05:59:00,27.1,15.1,30.34,South,169,0.0,0.0,60,0.00,,,0.00,VWS V13.01,2013-03-06 11:59:00,
2013-03-06 06:04:00,26.9,14.5,30.34,South,169,0.0,0.0,59,0.00,,,0.00,VWS V13.01,2013-03-06 12:04:00,
2013-03-06 06:09:00,27.1,15.5,30.34,WSW,241,3.1,3.1,61,0.00,,,0.00,VWS V13.01,2013-03-06 12:09:00,
2013-03-06 06:14:00,27.5,15.8,30.34,WSW,248,2.7,2.7,61,0.00,,,0.00,VWS V13.01,2013-03-06 12:14:00,
2013-03-06 06:19:00,27.8,15.8,30.34,West,259,0.0,0.0,60,0.00,,,0.00,VWS V13.01,2013-03-06 12:19:00,
2013-03-06 06:24:00,27.8,15.8,30.34,West,259,0.0,0.0,60,0.00,,,0.00,VWS V13.01,2013-03-06 12:24:00,
2013-03-06 06:29:00,27.7,15.6,30.37,WSW,248,3.1,4.0,60,0.00,,,0.00,VWS V13.01,2013-03-06 12:29:00,
2013-03-06 06:34:00,27.7,15.6,30.37,WSW,248,0.0,0.0,60,0.00,,,0.00,VWS V13.01,2013-03-06 12:34:00,
2013-03-06 06:39:00,27.5,15.4,30.37,SW,229,0.0,0.0,60,0.00,,,0.00,VWS V13.01,2013-03-06 12:39:00,
2013-03-06 06:44:00,27.1,15.5,30.37,SW,220,2.2,2.7,61,0.00,,,0.00,VWS V13.01,2013-03-06 12:44:00,
2013-03-06 06:49:00,26.9,15.3,30.37,SW,218,0.0,0.0,61,0.00,,,0.00,VWS V13.01,2013-03-06 12:49:00,
2013-03-06 06:54:00,26.8,15.1,30.37,SW,218,0.0,0.0,61,0.00,,,0.00,VWS V13.01,2013-03-06 12:54:00,
2013-03-06 06:59:00,26.9,15.3,30.37,SW,218,0.0,0.0,61,0.00,,,0.00,VWS V13.01,2013-03-06 12:59:00,
2013-03-06 07:04:00,27.3,15.6,30.37,SW,218,0.0,0.0,61,0.00,,,0.00,VWS V13.01,2013-03-06 13:04:00,
2013-03-06 07:09:00,27.1,15.5,30.37,SW,218,0.0,0.0,61,0.00,,,0.00,VWS V13.01,2013-03-06 13:09:00,
2013-03-06 07:14:00,27.1,15.5,30.37,SW,218,0.0,0.0,61,0.00,,,0.00,VWS V13.01,2013-03-06 13:14:00,
2013-03-06 07:19:00,27.7,16.0,30.37,ENE,66,2.2,3.1,61,0.00,,,0.00,VWS V13.01,2013-03-06 13:19:00,
2013-03-06 07:24:00,28.6,16.8,30.37,North,6,0.0,0.0,61,0.00,,,0.00,VWS V13.01,2013-03-06 13:24:00,
2013-03-06 07:29:00,29.3,17.1,30.37,North,10,4.0,4.0,60,0.00,,,0.00,VWS V13.01,2013-03-06 13:29:00,
2013-03-06 07:34:00,29.6,17.1,30.37,NW,315,0.0,0.0,59,0.00,,,0.00,VWS V13.01,2013-03-06 13:34:00,
2013-03-06 07:39:00,29.8,16.9,30.37,NNW,331,3.1,3.1,58,0.00,,,0.00,VWS V13.01,2013-03-06 13:39:00,
2013-03-06 07:44:00,30.2,17.6,30.37,WNW,301,4.0,4.0,59,0.00,,,0.00,VWS V13.01,2013-03-06 13:44:00,
2013-03-06 07:49:00,30.2,17.2,30.37,North,359,3.6,3.6,58,0.00,,,0.00,VWS V13.01,2013-03-06 13:49:00,
2013-03-06 07:54:00,30.2,17.2,30.37,NW,310,3.1,4.0,58,0.00,,,0.00,VWS V13.01,2013-03-06 13:54:00,
2013-03-06 07:59:00,30.5,17.5,30.37,NNW,333,4.9,4.9,58,0.00,,,0.00,VWS V13.01,2013-03-06 13:59:00,
2013-03-06 08:04:00,30.9,17.9,30.37,North,6,3.6,3.6,58,0.00,,,0.00,VWS V13.01,2013-03-06 14:04:00,
2013-03-06 08:09:00,31.3,17.8,30.37,NNW,345,2.7,2.7,57,0.00,,,0.00,VWS V13.01,2013-03-06 14:09:00,
2013-03-06 08:14:00,31.4,18.0,30.40,NW,326,3.6,3.6,57,0.00,,,0.00,VWS V13.01,2013-03-06 14:14:00,
2013-03-06 08:19:00,31.3,17.0,30.40,NNW,329,3.1,3.1,55,0.00,,,0.00,VWS V13.01,2013-03-06 14:19:00,
2013-03-06 08:24:00,31.6,17.3,30.40,NW,323,2.2,2.7,55,0.00,,,0.00,VWS V13.01,2013-03-06 14:24:00,
2013-03-06 08:29:00,31.6,17.3,30.40,NW,315,2.7,2.7,55,0.00,,,0.00,VWS V13.01,2013-03-06 14:29:00,
2013-03-06 08:34:00,31.8,17.1,30.40,WNW,291,3.6,3.6,54,0.00,,,0.00,VWS V13.01,2013-03-06 14:34:00,
2013-03-06 08:39:00,32.0,17.2,30.40,North,8,3.6,3.6,54,0.00,,,0.00,VWS V13.01,2013-03-06 14:39:00,
2013-03-06 08:44:00,32.2,17.4,30.40,WNW,294,2.7,2.7,54,0.00,,,0.00,VWS V13.01,2013-03-06 14:44:00,
2013-03-06 08:49:00,32.0,17.2,30.40,SSW,204,5.8,5.8,54,0.00,,,0.00,VWS V13.01,2013-03-06 14:49:00,
2013-03-06 08:54:00,31.6,16.9,30.40,West,265,3.6,3.6,54,0.00,,,0.00,VWS V13.01,2013-03-06 14:54:00,
2013-03-06 08:59:00,31.8,16.6,30.40,WSW,251,0.0,0.0,53,0.00,,,0.00,VWS V13.01,2013-03-06 14:59:00,
2013-03-06 09:04:00,32.2,17.0,30.40,West,265,2.7,2.7,53,0.00,,,0.00,VWS V13.01,2013-03-06 15:04:00,
2013-03-06 09:08:00,32.9,18.1,30.40,NNW,332,0.0,4.0,54,0.00,,,0.00,VWS V13.01,2013-03-06 15:08:00,
2013-03-06 09:14:00,33.6,17.9,30.40,SE,140,2.7,3.1,52,0.00,,,0.00,VWS V13.01,2013-03-06 15:14:00,
2013-03-06 09:19:00,34.3,18.5,30.40,North,6,0.0,0.0,52,0.00,,,0.00,VWS V13.01,2013-03-06 15:19:00,
2013-03-06 09:23:00,34.1,18.4,30.40,WSW,238,3.1,4.0,52,0.00,,,0.00,VWS V13.01,2013-03-06 15:23:00,
2013-03-06 09:28:00,33.8,18.0,30.40,SW,233,3.6,4.0,52,0.00,,,0.00,VWS V13.01,2013-03-06 15:28:00,
2013-03-06 09:33:00,33.4,17.7,30.40,West,263,3.1,5.8,52,0.00,,,0.00,VWS V13.01,2013-03-06 15:33:00,
2013-03-06 09:38:00,33.6,17.9,30.40,South,181,3.6,3.6,52,0.00,,,0.00,VWS V13.01,2013-03-06 15:38:00,
2013-03-06 09:43:00,34.0,18.2,30.40,SW,222,5.4,5.8,52,0.00,,,0.00,VWS V13.01,2013-03-06 15:43:00,
2013-03-06 09:48:00,34.1,18.4,30.40,South,177,4.0,4.9,52,0.00,,,0.00,VWS V13.01,2013-03-06 15:48:00,
2013-03-06 09:53:00,34.5,18.2,30.40,West,273,2.7,5.8,51,0.00,,,0.00,VWS V13.01,2013-03-06 15:53:00,
2013-03-06 09:58:00,34.9,18.6,30.40,West,260,4.0,4.0,51,0.00,,,0.00,VWS V13.01,2013-03-06 15:58:00,
2013-03-06 10:03:00,35.2,18.9,30.40,NNW,347,0.0,0.0,51,0.00,,,0.00,VWS V13.01,2013-03-06 16:03:00,
2013-03-06 10:08:00,36.1,19.8,30.40,SW,233,6.3,6.3,51,0.00,,,0.00,VWS V13.01,2013-03-06 16:08:00,
2013-03-06 10:13:00,35.9,19.6,30.37,WSW,254,4.9,5.4,51,0.00,,,0.00,VWS V13.01,2013-03-06 16:13:00,
2013-03-06 10:18:00,35.8,19.4,30.37,SW,230,4.0,4.0,51,0.00,,,0.00,VWS V13.01,2013-03-06 16:18:00,
2013-03-06 10:23:00,36.5,20.1,30.37,ENE,59,2.2,2.7,51,0.00,,,0.00,VWS V13.01,2013-03-06 16:23:00,
2013-03-06 10:28:00,37.6,20.6,30.37,SW,234,5.8,8.3,50,0.00,,,0.00,VWS V13.01,2013-03-06 16:28:00,
2013-03-06 10:33:00,37.2,20.3,30.37,SSW,192,5.4,5.4,50,0.00,,,0.00,VWS V13.01,2013-03-06 16:33:00,
2013-03-06 10:38:00,37.0,20.1,30.37,South,172,5.8,5.8,50,0.00,,,0.00,VWS V13.01,2013-03-06 16:38:00,
2013-03-06 10:43:00,37.7,20.8,30.37,SSE,147,5.8,6.3,50,0.00,,,0.00,VWS V13.01,2013-03-06 16:43:00,
2013-03-06 10:48:00,38.1,21.1,30.37,SSE,154,0.0,6.3,50,0.00,,,0.00,VWS V13.01,2013-03-06 16:48:00,
2013-03-06 10:53:00,38.3,21.3,30.37,SSW,202,5.4,5.4,50,0.00,,,0.00,VWS V13.01,2013-03-06 16:53:00,
2013-03-06 10:58:00,38.3,21.3,30.37,South,180,6.3,6.3,50,0.00,,,0.00,VWS V13.01,2013-03-06 16:58:00,
2013-03-06 11:03:00,38.5,21.5,30.37,SSE,168,7.6,8.3,50,0.00,,,0.00,VWS V13.01,2013-03-06 17:03:00,
2013-03-06 11:08:00,38.5,21.5,30.37,SSE,147,5.4,6.3,50,0.00,,,0.00,VWS V13.01,2013-03-06 17:08:00,
2013-03-06 11:13:00,38.6,21.6,30.37,South,186,2.2,3.1,50,0.00,,,0.00,VWS V13.01,2013-03-06 17:13:00,
2013-03-06 11:18:00,39.4,21.8,30.37,South,170,7.2,7.6,49,0.00,,,0.00,VWS V13.01,2013-03-06 17:18:00,
2013-03-06 11:23:00,39.2,21.6,30.37,SE,124,5.4,5.8,49,0.00,,,0.00,VWS V13.01,2013-03-06 17:23:00,
2013-03-06 11:28:00,39.7,22.1,30.37,SSW,198,5.8,5.8,49,0.00,,,0.00,VWS V13.01,2013-03-06 17:28:00,
2013-03-06 11:33:00,40.3,22.6,30.37,SSE,150,3.6,4.0,49,0.00,,,0.00,VWS V13.01,2013-03-06 17:33:00,
2013-03-06 11:38:00,40.8,23.1,30.37,South,188,3.6,5.4,49,0.00,,,0.00,VWS V13.01,2013-03-06 17:38:00,
2013-03-06 11:43:00,41.2,23.5,30.37,SSE,154,6.3,6.7,49,0.00,,,0.00,VWS V13.01,2013-03-06 17:43:00,
2013-03-06 11:48:00,41.5,23.3,30.37,SSE,162,5.8,8.7,48,0.00,,,0.00,VWS V13.01,2013-03-06 17:48:00,
2013-03-06 11:53:00,41.5,23.3,30.37,ESE,122,5.4,5.8,48,0.00,,,0.00,VWS V13.01,2013-03-06 17:53:00,
2013-03-06 11:58:00,42.1,24.3,30.37,South,188,5.4,5.4,49,0.00,,,0.00,VWS V13.01,2013-03-06 17:58:00,
2013-03-06 12:03:00,42.4,24.1,30.37,South,169,6.3,6.3,48,0.00,,,0.00,VWS V13.01,2013-03-06 18:03:00,
2013-03-06 12:08:00,42.6,24.3,30.37,South,191,6.3,6.3,48,0.00,,,0.00,VWS V13.01,2013-03-06 18:08:00,
2013-03-06 12:13:00,42.8,24.5,30.37,South,183,8.3,10.1,48,0.00,,,0.00,VWS V13.01,2013-03-06 18:13:00,
2013-03-06 12:18:00,42.6,24.3,30.37,SW,217,8.1,8.1,48,0.00,,,0.00,VWS V13.01,2013-03-06 18:18:00,
2013-03-06 12:23:00,42.2,24.0,30.37,South,176,7.6,11.0,48,0.00,,,0.00,VWS V13.01,2013-03-06 18:23:00,
2013-03-06 12:28:00,42.4,24.6,30.34,SSW,205,5.4,6.3,49,0.00,,,0.00,VWS V13.01,2013-03-06 18:28:00,
2013-03-06 12:33:00,42.6,24.3,30.34,South,182,8.7,8.7,48,0.00,,,0.00,VWS V13.01,2013-03-06 18:33:00,
2013-03-06 12:38:00,42.6,24.3,30.34,WSW,256,5.4,5.8,48,0.00,,,0.00,VWS V13.01,2013-03-06 18:38:00,
2013-03-06 12:43:00,43.0,24.6,30.34,South,188,10.5,10.5,48,0.00,,,0.00,VWS V13.01,2013-03-06 18:43:00,
2013-03-06 12:48:00,43.5,25.1,30.34,SSE,166,8.7,11.0,48,0.00,,,0.00,VWS V13.01,2013-03-06 18:48:00,
2013-03-06 12:53:00,43.7,25.3,30.34,WSW,240,8.3,8.3,48,0.00,,,0.00,VWS V13.01,2013-03-06 18:53:00,
2013-03-06 12:58:00,44.0,25.6,30.34,West,259,7.6,7.6,48,0.00,,,0.00,VWS V13.01,2013-03-06 18:58:00,
2013-03-06 13:03:00,44.2,25.8,30.34,South,169,8.1,8.7,48,0.00,,,0.00,VWS V13.01,2013-03-06 19:03:00,
2013-03-06 13:08:00,44.2,25.8,30.34,SSW,194,4.9,6.3,48,0.00,,,0.00,VWS V13.01,2013-03-06 19:08:00,
2013-03-06 13:13:00,44.8,25.8,30.31,SSW,199,4.0,4.0,47,0.00,,,0.00,VWS V13.01,2013-03-06 19:13:00,
2013-03-06 13:18:00,45.3,26.8,30.31,WSW,239,6.3,8.3,48,0.00,,,0.00,VWS V13.01,2013-03-06 19:18:00,
2013-03-06 13:23:00,45.5,26.4,30.31,SSW,196,8.7,9.2,47,0.00,,,0.00,VWS V13.01,2013-03-06 19:23:00,
2013-03-06 13:28:00,45.7,26.6,30.31,SW,225,4.9,5.8,47,0.00,,,0.00,VWS V13.01,2013-03-06 19:28:00,
2013-03-06 13:33:00,45.7,26.6,30.31,South,185,8.1,8.3,47,0.00,,,0.00,VWS V13.01,2013-03-06 19:33:00,
2013-03-06 13:38:00,45.7,26.6,30.31,SW,233,3.6,6.3,47,0.00,,,0.00,VWS V13.01,2013-03-06 19:38:00,
2013-03-06 13:43:00,46.2,27.1,30.31,South,175,5.4,5.4,47,0.00,,,0.00,VWS V13.01,2013-03-06 19:43:00,
2013-03-06 13:48:00,46.2,27.1,30.31,SSW,206,6.3,8.1,47,0.00,,,0.00,VWS V13.01,2013-03-06 19:48:00,
2013-03-06 13:53:00,46.7,27.6,30.31,SSW,204,5.8,8.3,47,0.00,,,0.00,VWS V13.01,2013-03-06 19:53:00,
2013-03-06 13:58:00,46.9,27.8,30.31,WSW,249,7.6,7.6,47,0.00,,,0.00,VWS V13.01,2013-03-06 19:58:00,
2013-03-06 14:03:00,47.3,28.1,30.31,WSW,242,8.7,8.7,47,0.00,,,0.00,VWS V13.01,2013-03-06 20:03:00,
2013-03-06 14:08:00,47.5,28.2,30.31,SSW,194,6.3,6.3,47,0.00,,,0.00,VWS V13.01,2013-03-06 20:08:00,
2013-03-06 14:13:00,47.6,28.4,30.31,SSW,201,6.3,8.3,47,0.00,,,0.00,VWS V13.01,2013-03-06 20:13:00,
2013-03-06 14:18:00,47.5,27.7,30.28,SW,214,5.4,6.7,46,0.00,,,0.00,VWS V13.01,2013-03-06 20:18:00,
2013-03-06 14:23:00,48.2,28.4,30.28,South,191,7.6,7.6,46,0.00,,,0.00,VWS V13.01,2013-03-06 20:23:00,
2013-03-06 14:28:00,48.2,28.4,30.28,SSW,194,5.4,5.4,46,0.00,,,0.00,VWS V13.01,2013-03-06 20:28:00,
2013-03-06 14:33:00,48.4,28.5,30.28,WSW,239,6.3,6.3,46,0.00,,,0.00,VWS V13.01,2013-03-06 20:33:00,
2013-03-06 14:38:00,48.5,28.7,30.28,ESE,114,6.7,6.7,46,0.00,,,0.00,VWS V13.01,2013-03-06 20:38:00,
2013-03-06 14:43:00,48.7,28.9,30.28,SW,224,5.4,5.4,46,0.00,,,0.00,VWS V13.01,2013-03-06 20:43:00,
2013-03-06 14:48:00,48.7,28.9,30.28,South,180,3.1,4.0,46,0.00,,,0.00,VWS V13.01,2013-03-06 20:48:00,
2013-03-06 14:53:00,48.7,28.9,30.28,South,186,7.6,7.6,46,0.00,,,0.00,VWS V13.01,2013-03-06 20:53:00,
2013-03-06 14:58:00,48.7,27.8,30.28,SSE,166,6.3,8.7,44,0.00,,,0.00,VWS V13.01,2013-03-06 20:58:00,
2013-03-06 15:03:00,48.4,27.5,30.28,SW,232,5.8,5.8,44,0.00,,,0.00,VWS V13.01,2013-03-06 21:03:00,
2013-03-06 15:08:00,48.9,29.0,30.28,WSW,247,9.2,9.2,46,0.00,,,0.00,VWS V13.01,2013-03-06 21:08:00,
2013-03-06 15:13:00,48.9,28.0,30.28,SE,138,3.6,3.6,44,0.00,,,0.00,VWS V13.01,2013-03-06 21:13:00,
2013-03-06 15:18:00,49.4,28.5,30.28,SSW,201,4.5,4.5,44,0.00,,,0.00,VWS V13.01,2013-03-06 21:18:00,
2013-03-06 15:23:00,49.6,28.6,30.28,SSE,155,8.1,8.1,44,0.00,,,0.00,VWS V13.01,2013-03-06 21:23:00,
2013-03-06 15:28:00,49.8,28.2,30.28,WSW,245,6.3,6.3,43,0.00,,,0.00,VWS V13.01,2013-03-06 21:28:00,
2013-03-06 15:33:00,49.8,29.9,30.28,SSW,194,5.4,5.4,46,0.00,,,0.00,VWS V13.01,2013-03-06 21:33:00,
2013-03-06 15:38:00,49.8,28.2,30.28,South,190,6.3,6.3,43,0.00,,,0.00,VWS V13.01,2013-03-06 21:38:00,
2013-03-06 15:43:00,50.0,28.4,30.28,SW,236,5.4,5.4,43,0.00,,,0.00,VWS V13.01,2013-03-06 21:43:00,
2013-03-06 15:48:00,50.0,28.4,30.28,SW,218,6.3,6.3,43,0.00,,,0.00,VWS V13.01,2013-03-06 21:48:00,
2013-03-06 15:53:00,49.8,28.2,30.28,SW,220,3.6,3.6,43,0.00,,,0.00,VWS V13.01,2013-03-06 21:53:00,
2013-03-06 15:58:00,49.6,28.6,30.28,SSE,167,2.7,4.0,44,0.00,,,0.00,VWS V13.01,2013-03-06 21:58:00,
2013-03-06 16:03:00,50.0,28.4,30.25,South,189,6.3,6.3,43,0.00,,,0.00,VWS V13.01,2013-03-06 22:03:00,
2013-03-06 16:08:00,50.0,28.4,30.25,South,169,6.3,6.3,43,0.00,,,0.00,VWS V13.01,2013-03-06 22:08:00,
2013-03-06 16:13:00,50.0,28.4,30.25,SSW,193,3.1,3.1,43,0.00,,,0.00,VWS V13.01,2013-03-06 22:13:00,
2013-03-06 16:18:00,50.2,28.5,30.28,SSW,199,5.4,5.4,43,0.00,,,0.00,VWS V13.01,2013-03-06 22:18:00,
2013-03-06 16:23:00,50.0,28.4,30.28,South,191,4.0,4.0,43,0.00,,,0.00,VWS V13.01,2013-03-06 22:23:00,
2013-03-06 16:28:00,50.0,28.4,30.28,SSE,159,3.6,3.6,43,0.00,,,0.00,VWS V13.01,2013-03-06 22:28:00,
2013-03-06 16:33:00,49.6,28.6,30.25,South,173,5.4,5.4,44,0.00,,,0.00,VWS V13.01,2013-03-06 22:33:00,
2013-03-06 16:38:00,49.4,28.5,30.25,SSW,197,5.4,5.8,44,0.00,,,0.00,VWS V13.01,2013-03-06 22:38:00,
2013-03-06 16:43:00,49.1,28.1,30.25,SSE,167,3.6,4.0,44,0.00,,,0.00,VWS V13.01,2013-03-06 22:43:00,
2013-03-06 16:48:00,49.1,29.2,30.25,SSW,195,3.1,5.4,46,0.00,,,0.00,VWS V13.01,2013-03-06 22:48:00,
2013-03-06 16:52:00,48.9,28.0,30.25,South,190,5.4,7.6,44,0.00,,,0.00,VWS V13.01,2013-03-06 22:52:00,
2013-03-06 16:57:00,48.9,28.0,30.25,SSW,204,3.6,4.9,44,0.00,,,0.00,VWS V13.01,2013-03-06 22:57:00,
2013-03-06 17:02:00,48.9,28.0,30.25,SSW,207,3.1,4.9,44,0.00,,,0.00,VWS V13.01,2013-03-06 23:02:00,
2013-03-06 17:07:00,49.1,29.2,30.25,South,184,3.6,4.0,46,0.00,,,0.00,VWS V13.01,2013-03-06 23:07:00,
2013-03-06 17:12:00,49.3,28.3,30.25,SSW,199,5.8,5.8,44,0.00,,,0.00,VWS V13.01,2013-03-06 23:12:00,
2013-03-06 17:17:00,49.1,28.1,30.25,SSW,195,4.9,5.8,44,0.00,,,0.00,VWS V13.01,2013-03-06 23:17:00,
2013-03-06 17:22:00,49.1,29.2,30.25,South,181,5.8,5.8,46,0.00,,,0.00,VWS V13.01,2013-03-06 23:22:00,
2013-03-06 17:27:00,48.9,29.0,30.25,SSW,200,4.0,4.9,46,0.00,,,0.00,VWS V13.01,2013-03-06 23:27:00,
2013-03-06 17:32:00,48.7,27.8,30.25,SSW,194,4.0,5.8,44,0.00,,,0.00,VWS V13.01,2013-03-06 23:32:00,
2013-03-06 17:37:00,48.7,27.8,30.25,WSW,249,3.6,4.9,44,0.00,,,0.00,VWS V13.01,2013-03-06 23:37:00,
2013-03-06 17:42:00,48.7,27.8,30.25,SSW,211,6.3,6.3,44,0.00,,,0.00,VWS V13.01,2013-03-06 23:42:00,
2013-03-06 17:47:00,48.5,27.6,30.25,South,185,2.7,4.0,44,0.00,,,0.00,VWS V13.01,2013-03-06 23:47:00,
2013-03-06 17:52:00,48.4,27.5,30.25,South,183,2.7,3.1,44,0.00,,,0.00,VWS V13.01,2013-03-06 23:52:00,
2013-03-06 17:57:00,48.2,27.3,30.25,South,181,3.1,3.1,44,0.00,,,0.00,VWS V13.01,2013-03-06 23:57:00,
2013-03-06 18:02:00,47.8,27.0,30.25,South,185,2.7,2.7,44,0.00,,,0.00,VWS V13.01,2013-03-07 00:02:00,
2013-03-06 18:07:00,47.5,27.7,30.25,South,187,0.0,0.0,46,0.00,,,0.00,VWS V13.01,2013-03-07 00:07:00,
2013-03-06 18:12:00,47.3,26.5,30.25,South,173,2.2,3.1,44,0.00,,,0.00,VWS V13.01,2013-03-07 00:12:00,
2013-03-06 18:17:00,47.1,26.3,30.25,South,171,0.0,0.0,44,0.00,,,0.00,VWS V13.01,2013-03-07 00:17:00,
2013-03-06 18:22:00,46.7,27.1,30.25,South,171,0.0,0.0,46,0.00,,,0.00,VWS V13.01,2013-03-07 00:22:00,
2013-03-06 18:27:00,46.2,26.6,30.25,South,171,0.0,0.0,46,0.00,,,0.00,VWS V13.01,2013-03-07 00:27:00,
2013-03-06 18:32:00,45.8,26.8,30.25,South,171,0.0,0.0,47,0.00,,,0.00,VWS V13.01,2013-03-07 00:32:00,
2013-03-06 18:37:00,45.8,26.8,30.25,South,171,0.0,0.0,47,0.00,,,0.00,VWS V13.01,2013-03-07 00:37:00,
2013-03-06 18:42:00,45.7,26.6,30.25,South,171,0.0,0.0,47,0.00,,,0.00,VWS V13.01,2013-03-07 00:42:00,
2013-03-06 18:47:00,45.3,26.3,30.25,ENE,76,0.0,0.0,47,0.00,,,0.00,VWS V13.01,2013-03-07 00:47:00,
2013-03-06 18:52:00,44.2,25.8,30.25,NE,48,0.0,0.0,48,0.00,,,0.00,VWS V13.01,2013-03-07 00:52:00,
2013-03-06 18:57:00,43.5,25.6,30.25,NE,48,0.0,0.0,49,0.00,,,0.00,VWS V13.01,2013-03-07 00:57:00,
2013-03-06 19:02:00,43.1,25.8,30.25,NE,48,0.0,0.0,50,0.00,,,0.00,VWS V13.01,2013-03-07 01:02:00,
2013-03-06 19:07:00,42.8,25.5,30.25,NE,48,0.0,0.0,50,0.00,,,0.00,VWS V13.01,2013-03-07 01:07:00,
2013-03-06 19:12:00,42.2,25.9,30.25,North,4,0.0,0.0,52,0.00,,,0.00,VWS V13.01,2013-03-07 01:12:00,
2013-03-06 19:17:00,41.7,25.9,30.25,North,350,0.0,0.0,53,0.00,,,0.00,VWS V13.01,2013-03-07 01:17:00,
2013-03-06 19:22:00,41.3,25.5,30.25,North,350,0.0,0.0,53,0.00,,,0.00,VWS V13.01,2013-03-07 01:22:00,
2013-03-06 19:27:00,41.0,26.1,30.25,North,350,0.0,0.0,55,0.00,,,0.00,VWS V13.01,2013-03-07 01:27:00,
2013-03-06 19:32:00,40.6,26.2,30.25,North,350,0.0,0.0,56,0.00,,,0.00,VWS V13.01,2013-03-07 01:32:00,
2013-03-06 19:37:00,40.3,26.3,30.25,North,350,0.0,0.0,57,0.00,,,0.00,VWS V13.01,2013-03-07 01:37:00,
2013-03-06 19:42:00,39.7,26.6,30.25,North,350,0.0,0.0,59,0.00,,,0.00,VWS V13.01,2013-03-07 01:42:00,
2013-03-06 19:47:00,39.0,25.9,30.25,North,350,0.0,0.0,59,0.00,,,0.00,VWS V13.01,2013-03-07 01:47:00,
2013-03-06 19:52:00,38.5,26.2,30.25,NNE,26,0.0,0.0,61,0.00,,,0.00,VWS V13.01,2013-03-07 01:52:00,
2013-03-06 19:57:00,37.7,25.5,30.25,NNE,26,0.0,0.0,61,0.00,,,0.00,VWS V13.01,2013-03-07 01:57:00,
2013-03-06 20:02:00,37.6,25.7,30.25,NNE,17,0.0,0.0,62,0.00,,,0.00,VWS V13.01,2013-03-07 02:02:00,
2013-03-06 20:07:00,37.2,25.8,30.25,NNE,31,3.1,3.1,63,0.00,,,0.00,VWS V13.01,2013-03-07 02:07:00,
2013-03-06 20:12:00,36.8,25.8,30.25,NNE,31,2.7,3.1,64,0.00,,,0.00,VWS V13.01,2013-03-07 02:12:00,
2013-03-06 20:17:00,36.5,25.9,30.25,NNE,31,2.7,2.7,65,0.00,,,0.00,VWS V13.01,2013-03-07 02:17:00,
2013-03-06 20:22:00,36.1,26.2,30.25,NNE,31,0.0,0.0,67,0.00,,,0.00,VWS V13.01,2013-03-07 02:22:00,
2013-03-06 20:27:00,36.1,26.2,30.25,NNE,31,0.0,0.0,67,0.00,,,0.00,VWS V13.01,2013-03-07 02:27:00,
2013-03-06 20:32:00,35.8,26.6,30.25,NNE,31,2.2,2.7,69,0.00,,,0.00,VWS V13.01,2013-03-07 02:32:00,
2013-03-06 20:37:00,35.6,26.4,30.25,NNE,31,0.0,0.0,69,0.00,,,0.00,VWS V13.01,2013-03-07 02:37:00,
2013-03-06 20:42:00,35.4,25.9,30.25,NW,306,0.0,0.0,68,0.00,,,0.00,VWS V13.01,2013-03-07 02:42:00,
2013-03-06 20:47:00,35.2,25.7,30.25,NW,324,0.0,0.0,68,0.00,,,0.00,VWS V13.01,2013-03-07 02:47:00,
2013-03-06 20:52:00,35.0,25.9,30.25,NNE,32,2.7,3.1,69,0.00,,,0.00,VWS V13.01,2013-03-07 02:52:00,
2013-03-06 20:57:00,34.9,26.1,30.25,NE,50,2.7,2.7,70,0.00,,,0.00,VWS V13.01,2013-03-07 02:57:00,
2013-03-06 21:02:00,34.3,26.2,30.25,NE,42,0.0,2.2,72,0.00,,,0.00,VWS V13.01,2013-03-07 03:02:00,
2013-03-06 21:07:00,34.1,26.4,30.25,NE,40,0.0,0.0,73,0.00,,,0.00,VWS V13.01,2013-03-07 03:07:00,
2013-03-06 21:12:00,34.1,25.7,30.25,NE,40,0.0,0.0,71,0.00,,,0.00,VWS V13.01,2013-03-07 03:12:00,
2013-03-06 21:17:00,34.3,26.6,30.25,NE,40,0.0,0.0,73,0.00,,,0.00,VWS V13.01,2013-03-07 03:17:00,
2013-03-06 21:22:00,34.1,26.4,30.25,NE,40,0.0,0.0,73,0.00,,,0.00,VWS V13.01,2013-03-07 03:22:00,
2013-03-06 21:27:00,34.1,26.1,30.25,NE,40,0.0,0.0,72,0.00,,,0.00,VWS V13.01,2013-03-07 03:27:00,
2013-03-06 21:32:00,34.3,26.6,30.25,NE,40,0.0,0.0,73,0.00,,,0.00,VWS V13.01,2013-03-07 03:32:00,
2013-03-06 21:37:00,34.7,26.9,30.25,NE,40,0.0,0.0,73,0.00,,,0.00,VWS V13.01,2013-03-07 03:37:00,
2013-03-06 21:42:00,34.9,27.1,30.25,NE,34,0.0,0.0,73,0.00,,,0.00,VWS V13.01,2013-03-07 03:42:00,
2013-03-06 21:47:00,34.9,27.1,30.25,NE,34,0.0,0.0,73,0.00,,,0.00,VWS V13.01,2013-03-07 03:47:00,
2013-03-06 21:52:00,34.9,26.8,30.25,NE,34,0.0,0.0,72,0.00,,,0.00,VWS V13.01,2013-03-07 03:52:00,
2013-03-06 21:57:00,34.9,26.8,30.25,NE,34,0.0,0.0,72,0.00,,,0.00,VWS V13.01,2013-03-07 03:57:00,
2013-03-06 22:02:00,34.9,26.8,30.25,NE,34,0.0,0.0,72,0.00,,,0.00,VWS V13.01,2013-03-07 04:02:00,
2013-03-06 22:07:00,34.7,26.6,30.25,NE,34,0.0,0.0,72,0.00,,,0.00,VWS V13.01,2013-03-07 04:07:00,
2013-03-06 22:12:00,34.7,26.2,30.25,NE,34,0.0,0.0,71,0.00,,,0.00,VWS V13.01,2013-03-07 04:12:00,
2013-03-06 22:17:00,34.9,27.1,30.25,NNE,32,0.0,0.0,73,0.00,,,0.00,VWS V13.01,2013-03-07 04:17:00,
2013-03-06 22:22:00,34.9,26.8,30.25,NNE,32,0.0,0.0,72,0.00,,,0.00,VWS V13.01,2013-03-07 04:22:00,
2013-03-06 22:27:00,35.0,26.6,30.25,NNE,32,0.0,0.0,71,0.00,,,0.00,VWS V13.01,2013-03-07 04:27:00,
2013-03-06 22:32:00,35.0,26.6,30.25,NE,36,0.0,2.2,71,0.00,,,0.00,VWS V13.01,2013-03-07 04:32:00,
2013-03-06 22:37:00,34.9,27.1,30.25,NE,36,0.0,2.2,73,0.00,,,0.00,VWS V13.01,2013-03-07 04:37:00,
2013-03-06 22:42:00,34.7,26.9,30.25,NNE,32,0.0,0.0,73,0.00,,,0.00,VWS V13.01,2013-03-07 04:42:00,
2013-03-06 22:47:00,34.7,26.6,30.25,North,360,2.2,2.2,72,0.00,,,0.00,VWS V13.01,2013-03-07 04:47:00,
2013-03-06 22:52:00,34.9,26.8,30.25,North,360,0.0,0.0,72,0.00,,,0.00,VWS V13.01,2013-03-07 04:52:00,
2013-03-06 22:57:00,34.9,26.8,30.25,North,360,0.0,0.0,72,0.00,,,0.00,VWS V13.01,2013-03-07 04:57:00,
2013-03-06 23:00:00,34.9,26.8,30.25,North,360,0.0,0.0,72,0.00,,,0.00,VWS V13.01,2013-03-07 05:00:00,
2013-03-06 23:01:00,34.9,26.8,30.25,North,360,0.0,0.0,72,0.00,,,0.00,VWS V13.01,2013-03-07 05:01:00,
2013-03-06 23:06:00,34.9,26.8,30.25,North,360,0.0,0.0,72,0.00,,,0.00,VWS V13.01,2013-03-07 05:06:00,
2013-03-06 23:11:00,35.0,26.9,30.25,North,360,0.0,0.0,72,0.00,,,0.00,VWS V13.01,2013-03-07 05:11:00,
2013-03-06 23:16:00,35.0,27.6,30.25,North,360,0.0,0.0,74,0.00,,,0.00,VWS V13.01,2013-03-07 05:16:00,
2013-03-06 23:21:00,35.0,27.6,30.25,North,360,0.0,0.0,74,0.00,,,0.00,VWS V13.01,2013-03-07 05:21:00,
2013-03-06 23:26:00,35.0,27.6,30.25,NNE,12,0.0,0.0,74,0.00,,,0.00,VWS V13.01,2013-03-07 05:26:00,
2013-03-06 23:31:00,34.9,28.4,30.25,NE,38,0.0,2.7,77,0.00,,,0.00,VWS V13.01,2013-03-07 05:31:00,
2013-03-06 23:36:00,34.9,28.4,30.25,NE,38,0.0,0.0,77,0.00,,,0.00,VWS V13.01,2013-03-07 05:36:00,
2013-03-06 23:41:00,34.9,29.3,30.25,NE,38,0.0,0.0,80,0.00,,,0.00,VWS V13.01,2013-03-07 05:41:00,
2013-03-06 23:46:00,34.7,29.1,30.25,NE,38,0.0,0.0,80,0.00,,,0.00,VWS V13.01,2013-03-07 05:46:00,
2013-03-06 23:51:00,34.7,29.1,30.25,NE,38,0.0,0.0,80,0.00,,,0.00,VWS V13.01,2013-03-07 05:51:00,
2013-03-06 23:56:00,34.9,28.4,30.25,NE,38,0.0,0.0,77,0.00,,,0.00,VWS V13.01,2013-03-07 05:56:00,